Regional Weather Roundup
Issued by NWS

Home | Current Version | Previous Version | Text Only | Print | Product List | Glossary Off
Versions: 1 2 3 4 5 6 7 8 9 10 11 12 13 14 15 16 17 18 19 20 21 22 23 24 25 26 27 28 29 30 31 32 33 34 35 36 37 38 39 40 41 42 43 44 45 46 47 48 49 50

000
ASUS43 KFSD 051202
RWRSD

WEATHER ROUNDUP FOR SOUTH DAKOTA
NATIONAL WEATHER SERVICE SIOUX FALLS SD
600 AM CST THU MAR 05 2015

NOTE: "FAIR" INDICATES FEW OR NO CLOUDS BELOW 12,000 FEET WITH NO
SIGNIFICANT WEATHER AND/OR OBSTRUCTIONS TO VISIBILITY.


SDZ001>005-009-010-012>017-051300-
NORTHWEST AND NORTH CENTRAL SOUTH DAKOTA

CITY           SKY/WX    TMP DP  RH WIND       PRES   REMARKS
BUFFALO          N/A      4  -5  66 S7        30.01F WCI  -8
FAITH            N/A     -1  -8  72 S16       30.16F WCI -21
MOBRIDGE       PTCLDY    -1  -7  75 SE10      30.23F WCI -17
$$

SDZ012>016-024>037-041>051-057-063-072>074-051300-
SOUTHWEST AND SOUTH CENTRAL SOUTH DAKOTA

CITY           SKY/WX    TMP DP  RH WIND       PRES   REMARKS
RAPID CTY ARPT CLEAR      1  -3  83 CALM      30.14S
PIERRE         PTCLDY    -6  -9  86 SE5       30.30F WCI -17
CUSTER         PTCLDY    11  -6  46 CALM      30.01S
ELLSWORTH AFB  PTCLDY     2  -4  75 W3        30.11F
PHILIP         PTCLDY    -6 -11  79 W5        30.25S WCI -17
PINE RIDGE     PTCLDY    -4 -10  75 W5        30.18S WCI -15
SPEARFISH      FAIR      19   0  42 MISG      30.07S
WINNER         FAIR       7  -4  60 SW14      30.31S WCI -10
$$

SDZ004>011-016>023-039-040-051300-
NORTHEAST SOUTH DAKOTA

CITY           SKY/WX    TMP DP  RH WIND       PRES   REMARKS
ABERDEEN       CLEAR    -17 -23  73 S8        30.39S WCI -35
WATERTOWN      PTCLDY   -14 -19  79 SW7       30.37R WCI -30
SISSETON         N/A    -10 -16  74 SW6       30.41R WCI -23
$$

SDZ017-020-022-023-036>040-048>070-051300-
SOUTHEAST SOUTH DAKOTA

CITY           SKY/WX    TMP DP  RH WIND       PRES   REMARKS
SIOUX FALLS    PTCLDY    -9 -14  78 CALM      30.44R
HURON          PTCLDY    -6 -12  75 S7        30.42R WCI -20
MITCHELL       PTCLDY    -6 -11  79 S5        30.44S WCI -17
YANKTON        PTCLDY    -2  -8  78 CALM      30.48S
$$

ABBREVIATIONS USED IN REMARKS
   TC - TEMPERATURE IN CELSIUS
  WCI - WIND CHILL INDEX
   HX - HEAT INDEX
  VSB - VISIBILITY



USA.gov is the U.S. government's official web portal to all federal, state and local government web resources and services.